Andrews, NC

4:27 AM EDT on October 18, 2017 (GMT -0400)
Andrews

Weather History for KRHP - March, 2014

Change the Weather History Date:

Friday, March 14, 2014

  Actual Average (KMMI) Record (KMMI)
Temperature  
Mean Temperature 42 °F -  
Max Temperature 62 °F 60 °F 69 °F (2016)
Min Temperature 21 °F 36 °F 21 °F (2014)
Degree Days  
Heating Degree Days 24    
Moisture  
Dew Point 23 °F    
Average Humidity 53    
Maximum Humidity 91    
Minimum Humidity 22    
Precipitation  
Precipitation 0.00 in - - ()
Sea Level Pressure  
Sea Level Pressure 30.18 in    
Wind  
Wind Speed 2 mph (WSW)    
Max Wind Speed 15 mph    
Max Gust Speed 21 mph    
Visibility 10 miles    
Events      
Averages and records for this station are not official NWS values.
T = Trace of Precipitation, MM = Missing Value Source: NWS Daily Summary

Daily Weather History Graph

Daily Weather History Graph

Search for Another Location

Airport or City:

Trip Planner

Search our weather history database for the weather conditions in past years. The results will help you decide how hot, cold, wet, or windy it might be!

Date:

Astronomy

Mar. 14, 2014 Rise Set
Actual Time 7:47 AM EDT 7:42 PM EDT
Civil Twilight 7:22 AM EDT 8:07 PM EDT
Nautical Twilight 6:52 AM EDT 8:36 PM EDT
Astronomical Twilight 6:23 AM EDT 9:06 PM EDT
Moon 6:05 PM EDT (3/14) 6:23 AM EDT (3/14)
Length of Visible Light 12h 45m
Length of Day
11h 54m
Waxing Gibbous, 96% of the Moon is Illuminated
Mar 14
Waxing Gibbous
Mar 16
Full
Mar 23
Last Quarter
Mar 30
New
Apr 7
First Quarter

Hourly Weather History & Observations

Time (EDT) Temp. Dew Point Humidity Pressure Visibility Wind Dir Wind Speed Gust Speed Precip Events Conditions
12:15 AM 26.8 °F 18.3 °F 70% 30.23 in 10.0 mi Calm Calm - N/A   Clear
12:35 AM 26.8 °F 19.8 °F 75% 30.23 in 10.0 mi Calm Calm - N/A   Clear
12:55 AM 26.4 °F 20.3 °F 78% 30.23 in 10.0 mi Calm Calm - N/A   Clear
1:15 AM 25.7 °F 20.1 °F 79% 30.24 in 10.0 mi Calm Calm - N/A   Clear
1:35 AM 25.7 °F 18.3 °F 74% 30.24 in 10.0 mi Calm Calm - N/A   Clear
1:55 AM 25.7 °F 18.7 °F 75% 30.24 in 10.0 mi Calm Calm - N/A   Clear
2:15 AM 25.2 °F 19.9 °F 81% 30.24 in 10.0 mi Calm Calm - N/A   Clear
2:35 AM 25.0 °F 20.3 °F 82% 30.25 in 10.0 mi Calm Calm - N/A   Clear
2:55 AM 25.0 °F 18.5 °F 76% 30.26 in 10.0 mi Calm Calm - N/A   Clear
3:15 AM 24.8 °F 20.3 °F 83% 30.26 in 10.0 mi Calm Calm - N/A   Clear
3:35 AM 24.4 °F 20.1 °F 84% 30.25 in 10.0 mi Calm Calm - N/A   Clear
3:55 AM 24.4 °F 19.8 °F 82% 30.25 in 10.0 mi Calm Calm - N/A   Clear
4:15 AM 24.1 °F 18.3 °F 79% 30.24 in 10.0 mi Calm Calm - N/A   Clear
4:35 AM 23.7 °F 19.4 °F 84% 30.24 in 10.0 mi Calm Calm - N/A   Clear
4:55 AM 23.0 °F 18.3 °F 82% 30.23 in 10.0 mi Calm Calm - N/A   Clear
5:15 AM 23.4 °F 19.2 °F 84% 30.24 in 10.0 mi Calm Calm - N/A   Clear
5:35 AM 22.6 °F 19.4 °F 87% 30.25 in 10.0 mi Calm Calm - N/A   Clear
5:55 AM 22.8 °F 19.4 °F 87% 30.25 in 10.0 mi Calm Calm - N/A   Clear
6:15 AM 22.5 °F 18.7 °F 85% 30.26 in 10.0 mi Calm Calm - N/A   Clear
6:35 AM 23.4 °F 19.0 °F 84% 30.26 in 10.0 mi Calm Calm - N/A   Clear
6:55 AM 22.8 °F 19.0 °F 85% 30.26 in 10.0 mi Calm Calm - N/A   Clear
7:15 AM 21.9 °F 18.5 °F 87% 30.26 in 10.0 mi Calm Calm - N/A   Clear
7:35 AM 22.1 °F 19.0 °F 88% 30.26 in 10.0 mi Calm Calm - N/A   Clear
7:55 AM 21.9 °F 18.7 °F 87% 30.26 in 10.0 mi Calm Calm - N/A   Clear
8:15 AM 21.7 °F 19.6 °F 91% 30.26 in 10.0 mi Calm Calm - N/A   Clear
8:35 AM 24.4 °F 20.8 °F 86% 30.26 in 10.0 mi Calm Calm - N/A   Clear
8:55 AM 25.7 °F 21.4 °F 84% 30.27 in 10.0 mi Calm Calm - N/A   Clear
9:15 AM 27.5 °F 21.7 °F 79% 30.26 in 10.0 mi Calm Calm - N/A   Clear
9:35 AM 29.8 °F 22.6 °F 75% 30.26 in 10.0 mi Calm Calm - N/A   Clear
9:55 AM 32.2 °F 22.5 °F 67% 30.27 in 10.0 mi Calm Calm - N/A   Clear
10:15 AM 34.9 °F 22.8 °F 61% 30.27 in 10.0 mi Calm Calm - N/A   Clear
10:35 AM 38.7 °F 22.5 °F 52% 30.27 in 10.0 mi Calm Calm - N/A   Clear
10:55 AM 41.9 °F 21.9 °F 45% 30.27 in 10.0 mi Calm Calm - N/A   Clear
11:15 AM 44.4 °F 19.9 °F 38% 30.27 in 10.0 mi Calm Calm - N/A   Clear
11:35 AM 47.8 °F 19.8 °F 33% 30.26 in 10.0 mi WSW 3.5 mph - N/A   Clear
11:55 AM 50.0 °F 21.9 °F 33% 30.24 in 10.0 mi Calm Calm - N/A   Clear
12:15 PM 53.1 °F 25.9 °F 35% 30.22 in 10.0 mi West 8.1 mph - N/A   Clear
12:35 PM 55.6 °F 28.6 °F 36% 30.21 in 10.0 mi West 15.0 mph 20.7 mph N/A   Clear
12:55 PM 55.9 °F 29.3 °F 36% 30.20 in 10.0 mi West 15.0 mph 20.7 mph N/A   Clear
1:15 PM 56.7 °F 28.8 °F 34% 30.19 in 10.0 mi West 15.0 mph - N/A   Clear
1:35 PM 57.9 °F 28.4 °F 32% 30.18 in 10.0 mi West 13.8 mph - N/A   Clear
1:55 PM 58.6 °F 27.5 °F 30% 30.17 in 10.0 mi West 11.5 mph 20.7 mph N/A   Clear
2:15 PM 60.1 °F 27.1 °F 29% 30.16 in 10.0 mi SW 9.2 mph 19.6 mph N/A   Clear
2:35 PM 60.4 °F 24.3 °F 25% 30.15 in 10.0 mi South 9.2 mph 16.1 mph N/A   Clear
2:55 PM 61.7 °F 25.0 °F 25% 30.12 in 10.0 mi WSW 11.5 mph 16.1 mph N/A   Clear
3:15 PM 62.4 °F 25.0 °F 24% 30.11 in 10.0 mi SW 11.5 mph 20.7 mph N/A   Clear
3:35 PM 61.7 °F 22.6 °F 22% 30.10 in 10.0 mi South 5.8 mph 17.3 mph N/A   Clear
3:55 PM 61.9 °F 23.7 °F 23% 30.09 in 10.0 mi WSW 9.2 mph 19.6 mph N/A   Clear
4:15 PM 60.4 °F 23.4 °F 24% 30.09 in 10.0 mi SSW 13.8 mph 19.6 mph N/A   Clear
4:35 PM 61.2 °F 23.0 °F 23% 30.08 in 10.0 mi SW 5.8 mph 17.3 mph N/A   Clear
4:55 PM 62.2 °F 23.2 °F 22% 30.07 in 10.0 mi SW 9.2 mph 17.3 mph N/A   Clear
5:15 PM 62.6 °F 23.7 °F 23% 30.07 in 10.0 mi WSW 10.4 mph 18.4 mph N/A   Clear
5:35 PM 61.9 °F 23.2 °F 23% 30.06 in 10.0 mi SW 11.5 mph 16.1 mph N/A   Clear
5:55 PM 61.3 °F 23.2 °F 23% 30.06 in 10.0 mi SW 12.7 mph 20.7 mph N/A   Clear
6:15 PM 60.3 °F 22.1 °F 23% 30.06 in 10.0 mi SW 13.8 mph - N/A   Clear
6:35 PM 59.0 °F 21.7 °F 24% 30.07 in 10.0 mi SSW 10.4 mph 17.3 mph N/A   Clear
6:55 PM 58.3 °F 21.7 °F 24% 30.07 in 10.0 mi SW 9.2 mph - N/A   Clear
7:15 PM 57.0 °F 22.3 °F 26% 30.07 in 10.0 mi SW 9.2 mph - N/A   Clear
7:35 PM 56.8 °F 22.1 °F 26% 30.08 in 10.0 mi SW 5.8 mph - N/A   Clear
7:55 PM 55.8 °F 22.5 °F 28% 30.08 in 10.0 mi SW 5.8 mph - N/A   Clear
8:15 PM 55.4 °F 23.2 °F 29% 30.10 in 10.0 mi WSW 5.8 mph - N/A   Clear
8:35 PM 55.8 °F 23.0 °F 28% 30.10 in 10.0 mi SW 4.6 mph - N/A   Scattered Clouds
8:55 PM 55.4 °F 23.9 °F 30% 30.11 in 10.0 mi SW 5.8 mph 9.2 mph N/A   Mostly Cloudy
9:15 PM 52.7 °F 26.1 °F 36% 30.11 in 10.0 mi West 3.5 mph - N/A   Scattered Clouds
9:35 PM 51.4 °F 27.3 °F 39% 30.11 in 10.0 mi Calm Calm - N/A   Scattered Clouds
9:55 PM 50.7 °F 28.8 °F 43% 30.11 in 10.0 mi Calm Calm - N/A   Mostly Cloudy
10:15 PM 48.4 °F 30.4 °F 50% 30.10 in 10.0 mi Calm Calm - N/A   Scattered Clouds
10:35 PM 48.9 °F 30.6 °F 49% 30.11 in 10.0 mi Calm Calm - N/A   Mostly Cloudy
10:55 PM 49.6 °F 29.3 °F 46% 30.10 in 10.0 mi Calm Calm - N/A   Mostly Cloudy
11:15 PM 48.2 °F 30.0 °F 49% 30.10 in 10.0 mi Calm Calm - N/A   Overcast
11:35 PM 47.8 °F 31.3 °F 53% 30.10 in 10.0 mi NE 3.5 mph - N/A   Overcast
11:55 PM 53.6 °F 30.0 °F 41% 30.10 in 10.0 mi WSW 11.5 mph - N/A   Overcast